Temperature
21 21 22 21 17 14 12 12 13 13 10 10 10 9 8 8 8 7 8 8 9 9 9 10 10 10 11 11 12 12 12 13 13 13 13 13 13 13 13 14 14 14 14 14 14 15 15 15 15
22 22 22 19 14 12 12 12 12 12 11 10 9 9 9 9 9 8 8 8 9 9 9 10 10 11 11 11 11 11 12 12 12 12 12 13 13 13 13 13 13 13 13 14 14 14 14 15 15
22 22 19 13 11 11 12 12 12 11 11 10 9 8 9 9 8 8 7 8 9 9 10 10 10 10 11 11 11 11 11 11 11 12 12 12 12 12 12 12 13 13 13 13 13 13 14 14 14
22 20 16 12 10 10 11 10 12 13 11 10 9 8 8 8 8 7 8 8 9 9 9 10 10 10 10 10 10 11 10 10 11 11 11 11 11 11 11 12 12 12 12 12 13 13 13 13 14
22 18 12 11 10 11 10 10 11 10 10 9 9 8 8 7 7 8 8 8 9 9 9 9 10 10 10 10 10 10 10 10 10 10 10 10 11 11 11 11 11 11 12 12 12 12 12 13 13
21 15 12 10 11 11 10 10 10 9 9 9 8 8 7 7 7 7 8 8 8 9 9 9 9 9 9 9 9 9 9 9 9 9 9 9 9 10 10 10 10 10 11 11 11 11 12 12 13
19 12 11 11 11 11 11 10 9 8 8 9 9 8 7 6 7 7 8 8 8 8 8 9 9 9 8 8 8 8 8 7 7 7 7 7 8 8 8 9 9 9 10 10 10 11 11 12 12
20 13 13 12 11 11 10 10 9 8 8 8 8 7 6 5 6 7 8 8 8 8 8 8 8 8 7 7 7 6 6 6 6 6 6 6 6 7 7 7 8 8 8 9 9 10 10 11 11
20 12 12 13 11 10 10 9 8 8 7 7 7 6 5 6 7 8 8 8 7 7 7 7 6 6 6 6 5 5 5 5 4 4 4 4 4 5 5 5 6 6 6 7 8 9 9 10 11
16 10 11 12 11 10 10 9 8 8 7 6 6 6 6 7 7 7 7 7 6 6 5 5 5 5 5 4 4 4 3 3 3 2 2 2 2 3 3 4 4 4 5 6 6 7 8 9 10
13 10 11 11 11 11 9 9 9 7 6 6 6 6 6 7 6 6 6 5 5 4 4 4 3 3 3 3 2 2 2 2 2 1 0 0 1 1 2 2 3 3 3 4 5 6 6 7 8
11 11 12 11 11 10 9 8 8 7 6 6 6 6 6 6 6 6 5 5 4 4 3 2 2 2 2 2 2 1 1 1 0 -1 -1 -1 -1 -1 -0 0 0 1 1 2 3 3 4 5 6
10 10 10 11 11 10 9 8 7 7 7 7 6 6 6 5 5 5 5 4 4 3 2 2 2 1 1 1 1 0 0 -0 -1 -2 -2 -3 -3 -2 -2 -2 -1 -1 -1 -0 1 1 2 3 4
10 10 9 10 10 9 8 7 7 7 7 7 6 6 5 5 5 5 4 4 3 2 2 1 1 1 1 0 0 -0 -1 -1 -2 -2 -3 -3 -4 -4 -4 -3 -3 -3 -3 -2 -1 -1 0 1 2
11 9 10 10 10 9 8 7 7 7 7 6 6 5 5 4 4 4 4 3 2 2 1 1 0 0 0 -0 -1 -1 -1 -2 -2 -3 -3 -4 -4 -4 -5 -5 -5 -5 -4 -4 -3 -2 -1 0 1
11 10 10 10 9 9 9 7 7 7 7 6 5 5 4 4 4 4 3 3 2 2 1 0 -0 -0 -0 -1 -1 -2 -2 -2 -3 -4 -4 -4 -5 -5 -5 -6 -6 -6 -5 -5 -4 -4 -3 -2 -1
12 11 12 10 10 9 8 7 7 7 7 6 5 4 4 4 4 3 3 3 2 1 0 -0 -1 -1 -1 -1 -1 -2 -2 -3 -3 -4 -4 -5 -5 -5 -6 -6 -7 -7 -6 -6 -6 -6 -5 -4 -3
14 13 12 10 10 9 8 6 7 7 7 6 5 4 4 4 3 3 3 2 1 1 -0 -1 -1 -1 -1 -1 -2 -2 -2 -3 -4 -4 -5 -5 -5 -6 -6 -7 -7 -7 -7 -7 -7 -7 -6 -6 -5
15 15 12 11 11 10 7 6 6 7 6 5 5 4 4 3 3 3 2 2 1 -0 -1 -2 -2 -2 -2 -2 -3 -3 -3 -4 -4 -5 -5 -6 -6 -7 -7 -8 -7 -7 -8 -8 -8 -8 -7 -6 -6
15 14 12 11 11 10 7 6 6 6 6 6 5 4 4 3 3 2 2 1 0 -1 -2 -3 -3 -3 -3 -4 -4 -4 -5 -5 -5 -6 -6 -7 -7 -8 -8 -8 -8 -8 -8 -8 -8 -8 -8 -7 -7
14 14 13 12 10 9 8 6 5 6 6 5 5 4 4 3 3 2 1 0 -1 -2 -3 -3 -3 -4 -4 -4 -5 -5 -5 -5 -5 -6 -7 -7 -8 -8 -9 -9 -9 -9 -9 -9 -9 -9 -9 -8 -7
14 13 13 11 9 8 9 7 5 4 4 4 4 4 3 3 2 2 1 -1 -2 -2 -3 -3 -4 -4 -4 -5 -5 -6 -6 -7 -7 -8 -8 -8 -8 -9 -9 -10 -10 -10 -10 -10 -10 -10 -9 -9 -8
13 13 12 12 11 9 8 8 5 4 4 3 3 3 3 2 2 1 -0 -1 -2 -3 -3 -4 -4 -4 -5 -5 -6 -7 -7 -8 -8 -8 -8 -9 -9 -9 -10 -10 -10 -10 -10 -10 -10 -10 -10 -9 -9
13 12 11 9 9 10 9 7 7 3 3 3 3 2 2 2 1 1 -0 -1 -2 -3 -3 -4 -4 -5 -5 -6 -7 -7 -8 -8 -8 -9 -9 -10 -10 -10 -10 -11 -11 -11 -11 -11 -11 -10 -10 -10 -9
11 11 10 11 10 10 10 7 6 4 3 3 3 2 2 1 1 0 -1 -2 -3 -3 -4 -4 -5 -5 -6 -6 -7 -8 -8 -9 -9 -10 -10 -11 -11 -11 -11 -12 -12 -12 -11 -11 -11 -11 -10 -10 -9
12 12 11 11 10 9 9 8 4 4 4 4 3 2 1 1 1 -0 -2 -3 -3 -4 -4 -5 -5 -6 -6 -7 -7 -8 -9 -9 -10 -10 -11 -11 -11 -12 -12 -12 -12 -12 -12 -12 -11 -11 -10 -10 -10
12 10 11 9 9 8 8 6 4 4 3 2 2 1 1 1 -0 -1 -3 -3 -4 -4 -5 -5 -6 -6 -7 -7 -8 -8 -9 -10 -10 -11 -11 -11 -12 -12 -12 -12 -13 -13 -13 -12 -12 -11 -11 -10 -10
12 10 8 9 10 9 8 7 5 3 2 2 1 1 0 -0 -1 -2 -3 -4 -4 -5 -5 -5 -6 -6 -7 -8 -8 -9 -10 -10 -11 -11 -12 -12 -12 -13 -13 -13 -13 -13 -13 -13 -12 -12 -11 -11 -10
12 12 10 8 7 8 8 8 5 3 2 1 1 1 -0 -1 -2 -3 -4 -4 -4 -4 -5 -5 -6 -7 -7 -8 -9 -9 -10 -11 -11 -12 -13 -13 -13 -13 -13 -13 -13 -13 -13 -13 -13 -12 -11 -11 -10
11 11 9 9 9 7 6 6 5 3 3 2 1 0 -0 -1 -3 -4 -4 -4 -4 -4 -5 -6 -7 -7 -8 -9 -9 -10 -10 -11 -12 -13 -13 -13 -13 -13 -13 -13 -13 -13 -13 -13 -13 -12 -11 -11 -10
Wind_Speed
14 10 4 5 8 10 8 7 5 6 6 5 9 10 10 9 8 8 3 10 17 20 26 27 30 30 31 31 31 31 31 31 31 31 31 30 30 29 28 28 27 25 24 22 19 17 16 15 14
8 5 7 7 7 8 6 6 9 6 9 8 8 7 8 8 5 5 6 12 21 24 26 27 30 31 31 31 31 31 31 31 31 32 32 31 31 30 29 28 28 27 26 25 23 21 18 17 16
3 7 7 7 7 5 5 3 9 11 11 5 6 7 6 5 5 5 7 17 24 26 28 29 31 32 31 31 31 31 31 31 31 32 32 32 31 31 30 29 29 28 28 27 26 24 22 19 18
5 7 8 10 12 5 4 5 3 4 8 9 6 7 6 7 5 6 12 22 22 24 27 29 32 32 31 31 31 31 31 31 31 32 32 32 31 31 30 30 30 29 29 28 27 26 24 22 20
5 7 9 7 6 3 5 9 10 8 6 7 6 8 6 7 9 11 16 22 19 21 26 28 32 32 31 31 31 31 31 31 31 31 32 31 31 31 30 31 31 30 29 29 28 27 26 25 23
6 6 8 6 5 4 4 7 5 9 6 5 7 7 6 7 11 11 16 18 21 21 25 27 31 32 32 30 31 31 30 31 31 31 31 31 31 31 30 31 31 31 30 29 28 28 28 27 25
7 6 7 8 6 4 3 4 6 5 7 6 3 7 6 8 8 9 15 18 19 22 24 27 29 30 30 29 30 30 30 30 30 30 31 30 30 30 30 31 32 31 31 30 29 28 28 27 26
6 7 6 5 6 4 2 4 4 6 5 4 5 7 6 4 7 9 12 12 16 20 23 26 28 29 29 27 28 29 29 30 30 30 30 30 29 29 29 30 31 31 31 30 29 30 29 28 26
6 7 5 3 7 6 6 5 5 7 10 9 8 9 8 6 10 12 11 12 13 17 21 25 26 28 28 26 26 27 27 28 28 27 29 28 25 25 26 29 30 31 30 30 30 30 29 27 25
7 6 3 1 7 9 7 7 7 6 9 9 9 9 10 11 12 12 12 13 14 15 15 22 24 27 27 24 23 23 23 25 25 25 26 24 24 24 26 27 29 29 29 29 29 30 27 24 21
7 7 6 7 9 9 7 5 5 9 6 6 9 8 9 11 10 10 9 8 9 9 13 19 22 25 25 23 22 21 21 22 23 24 25 24 22 22 23 22 23 24 25 23 25 24 22 21 20
8 7 6 6 6 6 6 6 6 4 7 9 10 9 9 10 9 8 8 8 8 10 12 16 20 24 24 22 21 20 21 21 21 23 24 23 20 20 21 19 21 21 20 21 21 19 21 21 21
7 5 5 9 13 10 10 8 8 8 10 10 11 11 10 9 7 7 7 7 8 10 11 12 18 22 22 21 21 20 21 21 22 22 23 24 20 18 19 19 19 20 20 20 19 19 19 18 18
7 9 9 9 9 5 11 8 7 7 9 10 10 9 8 8 7 7 7 8 8 8 10 13 16 22 22 21 21 20 22 22 22 22 24 25 22 20 19 18 17 18 20 20 19 19 16 14 15
8 8 5 4 5 6 8 5 4 9 9 9 9 9 8 7 7 7 6 7 7 7 8 12 17 21 20 20 21 20 21 22 21 21 23 25 24 23 21 17 15 18 21 20 19 17 15 13 13
6 6 3 5 7 7 6 4 6 8 10 9 8 8 8 6 6 6 6 7 7 7 8 10 17 18 18 18 19 19 20 20 20 21 23 25 25 25 21 16 15 20 20 18 13 9 12 13 13
2 1 4 5 7 7 6 5 8 7 10 9 8 8 7 6 5 6 6 7 6 7 7 8 13 15 16 17 18 17 17 18 19 21 22 24 24 25 22 16 17 20 17 14 13 12 12 14 14
3 4 4 6 7 7 5 6 8 7 9 9 8 8 7 6 5 5 6 6 6 6 6 7 11 14 15 16 15 13 14 16 18 19 21 23 23 24 22 17 19 19 12 11 11 14 13 13 13
4 2 4 4 3 5 6 7 9 6 8 9 8 7 7 6 6 6 5 5 7 8 8 8 8 9 12 8 10 10 11 9 13 18 21 22 23 23 20 18 17 17 10 12 13 14 14 13 13
2 3 3 2 1 2 3 5 6 6 7 8 9 8 7 6 5 4 5 6 7 6 6 7 8 8 10 8 8 7 6 7 12 15 18 21 22 22 20 19 15 15 11 12 13 13 10 11 12
4 2 3 3 2 2 3 1 4 2 4 5 6 6 5 6 6 3 4 5 4 5 6 9 8 8 10 12 10 10 5 5 6 6 9 19 21 20 20 20 17 16 11 10 12 11 12 12 12
1 2 2 3 3 3 4 4 6 6 5 4 5 5 5 6 5 3 2 2 2 4 5 7 7 7 10 12 8 9 11 8 9 8 8 17 19 19 20 19 18 16 13 10 11 12 11 11 11
4 2 3 2 3 1 2 3 4 5 6 6 5 6 6 5 5 3 1 1 3 5 6 7 7 7 9 11 8 9 8 7 8 9 10 9 14 17 19 18 17 15 13 11 11 12 11 10 10
2 4 3 4 3 3 5 6 5 5 7 6 6 6 6 5 3 2 2 4 5 6 7 7 8 8 8 9 8 9 10 10 12 13 10 10 7 11 17 18 16 16 13 12 11 10 12 11 11
7 6 5 6 4 5 1 4 4 4 4 8 9 8 6 4 2 3 5 6 7 8 8 8 8 8 9 9 9 10 9 10 11 12 11 12 11 10 9 17 15 14 14 16 14 11 11 11 11
3 3 3 3 5 7 3 3 4 4 4 7 8 7 6 4 3 4 5 5 6 8 8 8 9 9 10 10 10 8 8 8 9 11 12 12 11 10 14 18 17 17 16 17 14 10 11 11 11
2 2 4 4 3 5 6 4 3 3 4 6 7 6 5 3 4 4 5 6 7 8 8 8 9 10 10 11 11 9 8 9 11 10 10 9 11 15 18 18 16 16 16 14 11 9 12 12 11
2 4 5 2 3 6 8 6 5 9 10 7 7 6 4 3 3 4 5 6 6 6 7 8 8 9 10 10 10 13 9 11 12 11 12 11 14 17 16 14 13 13 13 13 10 11 11 13 12
1 1 3 3 4 3 6 7 4 10 10 9 8 7 6 4 2 2 4 5 6 7 7 8 9 9 10 10 10 11 11 12 13 10 11 12 13 16 14 13 13 14 13 11 12 12 13 13 13
2 2 4 1 3 3 4 7 1 7 8 9 9 7 6 4 2 1 3 5 6 7 8 9 9 10 10 10 11 11 11 11 12 12 12 15 13 15 16 15 14 15 14 13 13 14 14 14 14
Wind_Direction
330 343 54 55 59 60 56 10 16 104 78 58 63 79 87 69 81 109 288 355 16 15 10 9 15 16 17 18 18 19 19 19 18 17 15 14 12 11 10 8 3 359 354 347 339 331 322 315 309
336 24 49 53 68 67 53 5 50 67 137 131 72 67 68 67 67 77 10 16 29 23 14 11 16 16 16 17 17 17 17 17 16 16 14 13 11 10 9 7 4 1 357 352 346 338 328 318 310
33 55 61 59 64 80 90 20 83 71 73 83 77 53 59 51 37 46 19 35 34 27 18 13 17 16 15 16 16 15 15 15 14 14 13 11 9 8 6 6 2 360 358 355 350 343 336 326 315
76 53 62 67 76 40 33 323 264 100 64 44 91 62 58 26 49 61 46 43 36 28 21 16 18 16 15 15 15 14 14 14 12 11 10 9 7 5 4 4 0 358 356 353 350 347 341 334 323
65 71 72 67 77 69 26 11 40 52 62 37 72 86 66 21 61 58 51 45 37 28 24 19 18 16 15 15 15 13 13 12 11 10 8 7 6 3 2 1 358 355 354 351 350 349 347 341 333
62 69 82 97 115 126 52 26 50 51 74 70 86 100 65 17 53 51 52 46 39 30 25 22 19 16 14 13 14 13 12 11 10 8 7 6 4 1 360 359 355 353 352 350 348 348 346 343 338
88 77 90 116 125 107 96 65 44 50 52 29 87 95 91 34 52 57 52 43 37 32 27 22 19 16 12 11 12 11 11 10 9 7 6 5 3 0 359 356 352 351 350 349 347 346 344 342 339
98 93 89 109 123 118 86 72 63 52 57 28 64 99 94 57 56 55 48 39 33 30 26 21 19 15 9 7 9 9 9 8 8 6 5 4 3 0 358 354 351 350 349 349 347 346 343 342 339
70 75 85 119 144 143 139 108 68 49 71 62 62 84 105 85 59 50 40 33 29 26 23 20 18 14 9 6 6 6 6 6 6 5 4 4 3 358 357 351 351 350 348 348 346 345 343 342 338
55 90 81 342 140 132 121 112 121 91 77 78 79 77 77 65 57 51 40 29 24 19 16 18 18 13 8 6 2 5 3 2 2 3 3 4 1 357 356 350 350 349 348 348 345 344 344 342 336
62 104 108 73 99 108 103 87 93 120 91 119 119 104 81 72 64 60 50 40 28 18 16 15 19 12 8 5 1 5 1 360 360 1 3 3 360 356 354 350 348 346 347 346 342 342 341 338 334
80 63 93 111 90 84 94 99 82 96 132 138 128 121 101 86 75 70 59 44 32 27 17 12 20 13 8 6 1 4 1 358 358 358 1 3 360 356 353 349 344 344 345 342 340 336 334 334 331
80 88 59 84 79 83 91 94 105 116 136 130 119 111 110 103 91 80 74 59 43 31 16 10 20 14 8 8 3 2 359 356 353 355 0 2 359 354 350 346 342 341 343 341 337 334 332 332 329
100 98 102 94 93 94 110 114 111 157 148 128 119 117 117 110 104 84 65 54 43 31 17 9 18 13 8 8 2 359 357 354 353 354 359 359 356 352 348 342 340 342 342 339 335 329 330 327 325
94 90 92 132 117 134 119 88 153 167 146 132 128 128 120 111 100 91 84 70 53 36 21 14 13 10 6 5 1 357 354 354 353 354 357 356 355 352 347 341 343 344 341 337 334 328 331 327 325
94 101 136 202 159 167 129 160 201 170 144 145 141 135 127 116 105 101 90 79 59 40 26 17 12 6 2 360 356 354 352 353 353 354 355 354 354 352 347 342 345 343 341 339 333 333 332 327 324
123 159 208 201 195 175 172 181 207 172 149 150 151 147 141 131 110 95 82 76 60 42 25 13 7 2 357 354 352 348 350 352 353 354 355 353 353 351 347 342 346 345 342 339 336 336 332 327 324
224 223 198 212 203 174 172 177 188 171 147 148 149 147 144 134 127 105 80 70 57 37 24 12 1 356 354 352 351 350 351 352 352 352 353 353 352 349 346 348 347 347 343 339 337 334 331 327 325
217 189 184 210 188 171 180 172 186 164 135 143 149 147 141 133 122 101 77 61 43 28 14 4 354 348 353 353 354 350 348 344 347 350 350 350 349 348 347 350 346 347 341 336 336 334 330 331 330
108 116 146 200 192 146 145 179 183 166 160 161 155 152 145 128 114 95 58 45 36 14 354 358 352 344 348 346 339 335 325 322 334 335 343 347 346 346 349 347 343 343 338 334 335 331 333 329 333
46 113 182 202 162 94 118 151 180 169 146 139 130 139 131 124 117 90 51 41 18 357 353 2 347 340 342 342 341 341 327 318 333 331 339 342 341 341 342 340 340 339 336 332 330 329 333 329 327
290 197 186 161 151 253 174 275 201 183 181 157 135 124 116 113 115 102 63 28 5 349 351 350 340 333 337 341 343 346 348 339 332 331 326 330 334 335 338 337 338 336 332 327 327 334 324 324 325
259 256 222 181 178 281 213 231 275 160 198 195 168 148 138 135 129 113 88 39 15 358 351 342 334 330 334 338 337 335 333 324 324 326 324 323 327 331 333 333 335 332 330 324 321 324 322 321 318
316 38 65 56 76 295 219 184 250 205 208 175 163 157 152 147 134 109 52 28 6 354 345 337 335 331 332 334 333 331 328 327 330 332 330 330 325 326 327 331 330 327 326 323 321 321 318 316 314
43 52 17 354 356 270 201 181 252 225 188 162 164 167 163 152 120 54 29 11 355 346 339 334 337 336 336 336 335 329 326 325 326 330 330 330 330 328 320 328 324 321 321 322 321 318 317 312 313
348 107 119 275 272 293 332 256 253 223 164 136 144 152 150 126 77 51 29 5 347 341 337 338 341 341 341 341 336 327 329 331 331 329 329 327 327 322 322 325 321 318 319 322 319 315 313 312 310
58 95 154 156 293 285 283 280 285 227 178 148 145 143 135 106 71 48 19 1 347 341 340 340 343 343 344 342 336 337 336 331 330 326 324 324 324 326 326 323 320 318 316 315 314 311 311 309 306
130 143 89 118 298 294 292 275 235 205 209 184 168 156 148 123 74 38 7 350 341 338 337 342 345 343 339 339 339 344 331 329 327 324 324 322 322 322 321 321 319 317 315 312 310 309 308 307 305
11 182 131 134 176 221 289 279 225 192 184 176 173 166 163 145 98 15 344 337 337 340 343 346 347 344 342 338 333 330 327 325 324 322 320 319 318 320 321 319 318 317 314 311 310 308 307 306 306
247 196 151 183 267 210 240 278 85 154 153 152 157 160 158 143 125 339 333 340 346 347 346 347 345 342 338 334 331 329 326 324 323 322 319 320 318 320 320 318 317 316 316 311 307 305 306 302 301
Height
1542 1541 1541 1542 1550 1571 1593 1597 1592 1594 1599 1602 1600 1601 1606 1611 1616 1627 1626 1620 1616 1612 1607 1603 1599 1595 1592 1589 1585 1582 1579 1576 1573 1570 1568 1565 1562 1560 1558 1556 1554 1552 1550 1548 1546 1545 1543 1542 1541
1542 1542 1544 1547 1567 1592 1603 1601 1596 1594 1598 1600 1601 1605 1607 1613 1619 1622 1622 1619 1616 1612 1608 1603 1600 1596 1592 1589 1585 1582 1579 1575 1572 1569 1566 1564 1561 1558 1556 1553 1551 1549 1547 1545 1544 1542 1540 1539 1538
1543 1543 1547 1562 1587 1601 1603 1602 1599 1598 1599 1600 1604 1608 1612 1618 1622 1623 1622 1619 1616 1612 1608 1604 1600 1596 1593 1589 1585 1582 1578 1575 1571 1568 1565 1562 1559 1556 1553 1551 1548 1546 1544 1542 1540 1539 1537 1536 1535
1545 1548 1559 1579 1599 1605 1605 1603 1600 1597 1599 1602 1605 1612 1619 1623 1624 1624 1622 1619 1615 1612 1608 1604 1601 1597 1593 1589 1585 1581 1577 1574 1570 1566 1563 1560 1557 1554 1551 1548 1545 1543 1540 1538 1536 1535 1533 1532 1531
1547 1553 1574 1595 1603 1606 1606 1603 1599 1600 1603 1608 1608 1617 1624 1627 1625 1623 1621 1618 1615 1612 1608 1604 1600 1596 1592 1588 1584 1580 1576 1572 1568 1564 1560 1557 1554 1551 1547 1544 1542 1539 1537 1534 1532 1530 1528 1527 1526
1550 1560 1586 1603 1606 1606 1606 1606 1604 1606 1608 1610 1613 1618 1627 1628 1624 1623 1621 1618 1615 1611 1608 1604 1600 1596 1591 1587 1583 1578 1574 1570 1565 1561 1557 1554 1550 1547 1544 1541 1538 1535 1532 1530 1527 1525 1524 1522 1521
1555 1571 1592 1601 1605 1606 1608 1608 1608 1610 1610 1612 1614 1619 1626 1626 1625 1623 1621 1618 1615 1611 1607 1603 1599 1594 1590 1585 1581 1576 1572 1567 1562 1558 1554 1550 1546 1542 1539 1536 1533 1530 1527 1524 1522 1520 1518 1517 1516
1559 1572 1591 1599 1603 1607 1608 1609 1612 1611 1613 1614 1615 1619 1625 1626 1625 1623 1621 1618 1614 1610 1606 1601 1597 1593 1588 1583 1578 1574 1569 1564 1560 1555 1550 1546 1542 1538 1535 1532 1528 1525 1522 1519 1516 1514 1513 1511 1510
1562 1580 1596 1597 1601 1606 1607 1610 1613 1616 1614 1615 1618 1621 1625 1625 1624 1622 1619 1616 1613 1609 1604 1600 1596 1591 1586 1581 1576 1571 1567 1562 1556 1552 1547 1542 1538 1534 1530 1527 1523 1520 1516 1513 1511 1509 1507 1505 1504
1568 1591 1597 1596 1597 1602 1606 1609 1613 1617 1617 1620 1622 1623 1624 1624 1622 1620 1618 1614 1611 1607 1603 1599 1594 1589 1584 1579 1574 1568 1564 1559 1554 1549 1544 1539 1535 1531 1527 1523 1519 1515 1511 1508 1505 1503 1501 1499 1498
1579 1592 1597 1598 1599 1602 1606 1610 1613 1616 1620 1621 1622 1623 1624 1623 1622 1620 1618 1615 1612 1608 1603 1598 1593 1587 1582 1576 1571 1566 1561 1556 1551 1546 1541 1536 1532 1527 1523 1519 1514 1510 1506 1503 1500 1497 1495 1493 1491
1586 1595 1597 1601 1602 1604 1607 1610 1614 1616 1619 1622 1622 1623 1623 1622 1621 1619 1617 1615 1612 1608 1603 1597 1591 1586 1580 1575 1569 1564 1559 1554 1549 1544 1539 1533 1529 1524 1520 1516 1511 1506 1502 1498 1495 1492 1489 1487 1486
1591 1598 1600 1602 1603 1606 1608 1612 1614 1619 1620 1621 1622 1622 1622 1622 1621 1619 1618 1615 1611 1606 1601 1596 1590 1584 1578 1573 1568 1562 1557 1552 1547 1542 1537 1532 1527 1522 1517 1513 1508 1504 1500 1496 1491 1488 1484 1481 1479
1595 1599 1603 1605 1606 1610 1611 1615 1616 1620 1620 1621 1622 1622 1622 1621 1621 1619 1616 1613 1609 1605 1600 1595 1589 1583 1578 1572 1566 1561 1556 1551 1546 1541 1536 1530 1525 1520 1515 1510 1506 1502 1497 1493 1488 1484 1480 1477 1474
1598 1603 1607 1608 1608 1611 1613 1617 1617 1618 1620 1621 1621 1621 1621 1621 1620 1618 1615 1612 1608 1604 1600 1594 1588 1583 1577 1571 1566 1560 1555 1550 1544 1539 1534 1529 1524 1518 1513 1509 1504 1499 1495 1490 1485 1481 1476 1472 1469
1601 1606 1609 1609 1608 1610 1614 1619 1617 1618 1619 1620 1621 1621 1621 1620 1619 1617 1614 1611 1608 1603 1599 1593 1587 1582 1576 1570 1565 1560 1554 1549 1543 1538 1532 1527 1522 1517 1511 1507 1502 1497 1492 1487 1482 1477 1472 1468 1464
1601 1606 1605 1607 1607 1608 1612 1616 1616 1617 1618 1619 1620 1621 1620 1619 1618 1616 1613 1610 1607 1602 1598 1592 1586 1580 1574 1569 1564 1559 1553 1548 1542 1536 1530 1525 1520 1514 1510 1505 1500 1495 1490 1485 1480 1475 1470 1465 1460
1598 1599 1602 1605 1604 1606 1609 1613 1614 1615 1617 1618 1619 1620 1619 1618 1617 1615 1613 1610 1606 1602 1597 1591 1585 1578 1573 1567 1562 1557 1551 1546 1541 1535 1529 1523 1518 1512 1507 1502 1497 1492 1487 1482 1477 1473 1468 1464 1459
1591 1593 1599 1601 1600 1603 1608 1612 1613 1614 1616 1617 1618 1619 1618 1618 1616 1614 1612 1609 1606 1601 1595 1589 1583 1577 1570 1564 1558 1553 1547 1543 1538 1533 1527 1521 1516 1510 1505 1500 1494 1489 1484 1480 1475 1471 1466 1462 1457
1588 1593 1600 1601 1600 1602 1608 1612 1613 1614 1615 1616 1617 1617 1617 1617 1615 1614 1611 1608 1604 1599 1593 1587 1581 1575 1569 1564 1558 1553 1547 1541 1536 1531 1525 1520 1514 1508 1503 1497 1492 1486 1481 1477 1473 1469 1464 1460 1457
1592 1592 1595 1598 1601 1603 1608 1613 1615 1615 1615 1616 1616 1616 1616 1616 1614 1612 1610 1606 1602 1596 1591 1586 1580 1574 1568 1563 1557 1551 1544 1539 1532 1526 1521 1517 1511 1506 1501 1495 1490 1484 1479 1474 1470 1467 1463 1458 1455
1593 1592 1592 1596 1603 1606 1606 1612 1615 1615 1615 1615 1616 1615 1615 1614 1613 1611 1608 1604 1600 1595 1590 1584 1579 1573 1567 1561 1555 1548 1541 1535 1529 1524 1519 1514 1509 1503 1498 1493 1487 1482 1477 1472 1468 1464 1461 1457 1453
1592 1591 1592 1594 1598 1603 1606 1609 1611 1614 1615 1614 1615 1614 1614 1613 1612 1609 1606 1602 1598 1593 1588 1583 1577 1572 1566 1560 1553 1547 1541 1534 1528 1522 1516 1510 1505 1500 1495 1490 1484 1479 1474 1469 1465 1461 1458 1455 1452
1590 1593 1594 1599 1603 1605 1600 1610 1604 1613 1610 1611 1613 1613 1612 1611 1610 1607 1604 1600 1596 1591 1586 1581 1575 1570 1564 1558 1552 1545 1538 1532 1525 1518 1512 1506 1501 1496 1491 1486 1481 1476 1471 1466 1461 1457 1454 1451 1448
1593 1600 1606 1602 1607 1602 1595 1603 1604 1608 1606 1607 1610 1611 1611 1610 1608 1605 1602 1598 1594 1589 1584 1579 1573 1567 1561 1555 1549 1543 1536 1530 1523 1516 1509 1503 1497 1491 1486 1482 1477 1472 1467 1462 1457 1453 1450 1447 1444
1596 1598 1609 1611 1613 1606 1596 1599 1609 1607 1606 1607 1608 1609 1609 1608 1606 1604 1600 1597 1592 1587 1582 1577 1571 1565 1559 1553 1547 1541 1534 1528 1521 1515 1508 1501 1494 1488 1483 1478 1473 1468 1463 1458 1453 1449 1446 1442 1440
1596 1602 1601 1611 1612 1612 1602 1604 1608 1606 1607 1607 1607 1607 1607 1606 1605 1602 1599 1595 1591 1586 1581 1575 1569 1563 1557 1551 1544 1538 1532 1525 1518 1511 1505 1498 1492 1485 1480 1474 1469 1463 1459 1454 1449 1445 1441 1438 1435
1596 1599 1608 1609 1612 1612 1603 1598 1603 1604 1604 1605 1606 1605 1606 1605 1603 1601 1597 1593 1589 1585 1579 1574 1568 1562 1556 1549 1543 1536 1529 1522 1515 1508 1502 1495 1489 1483 1476 1470 1465 1459 1454 1449 1445 1440 1437 1434 1431
1597 1598 1602 1610 1613 1615 1611 1598 1593 1595 1597 1601 1603 1604 1604 1603 1602 1599 1596 1592 1587 1583 1578 1572 1566 1560 1554 1547 1540 1533 1526 1519 1513 1506 1500 1493 1487 1480 1474 1468 1461 1455 1450 1445 1440 1436 1433 1429 1426
1597 1597 1601 1608 1608 1613 1617 1603 1593 1593 1595 1598 1601 1602 1603 1602 1600 1597 1594 1590 1585 1581 1575 1570 1564 1558 1551 1545 1538 1531 1524 1517 1511 1504 1498 1492 1485 1479 1472 1465 1459 1452 1446 1440 1435 1431 1428 1425 1422